フルス彗星

P/2019 Y2 ( Fuls )

English version
Home page
Updated on March 8, 2020

---------------------------------------------------------------------

・ プロフィール

発見日 2019年12月21日
発見光度 18.8等
発見者 D. Carson Fuls (Mount Lemmon Survey)

・ 写真集

・ 軌道要素

Epoch 2020 Feb. 1.0 TT = JDT 2458880.5
T 2020 Jan. 31.89119 TT                                 Bell
q   2.1246708            (2000.0)            P               Q
n   0.15366283     Peri.   92.36989     -0.98936269     -0.11858408
a   3.4521540      Node    80.82831     +0.07420836     -0.90959873
e   0.3845377      Incl.    4.89606     +0.12511826     -0.39820594
P   6.41
From 278 observations 2019 Dec. 21-2020 Mar. 4, mean residual 0".6.

・ 星図

・ 光度変化

        m1 = 12.8 + 5 logΔ + 10.0 log r

---------------------------------------------------------------------

軌道要素はM.P.E.C. 2020-E26に掲載されたものです。
星図はステラナビゲータ Ver.10 (アストロアーツ) で作成したものです。
光度グラフはComet for Windowsで作成したものです。

---------------------------------------------------------------------

Copyright(C) Seiichi Yoshida (comet@aerith.net). All rights reserved.